Location: Aurora Center
(43.5271°N, 98.5894°W)
Time: 21:57:25
(UTC-05:00)

ISS - Pass Details

Date: 27 June 2024
Orbit: 409 x 424 km, 51.6° (Epoch: 18 July)

Event Time Altitude Azimuth Distance (km) Brightness Sun altitude
Exits shadow 02:57:16 18° 105° (ESE) 1,078 -1.7 -20.7°
Drops below altitude 10° 02:58:45 10° 83° (E) 1,485 -0.6 -20.6°
Sets 03:01:08 0° 67° (ENE) 2,356 0.7 -20.5°
